This is the latest recevied weather packets stored in our database for station/object K5GHS-1. If no packets are shown the sender has not sent any weather packets the latest 10 day(s).
| Time | Temp. | Humidity | Pressure | Rain* | Wind** | Luminosity | Snow |
|---|---|---|---|---|---|---|---|
| 1778006551 | 28.89° C | 66% | 1003 hPa | 0 mm | - | 355 W/m² | - |
| 1778006247 | 28.89° C | 67% | 1003.2 hPa | 0 mm | - | 329 W/m² | - |
| 1778005945 | 28.89° C | 68% | 1003.1 hPa | 0 mm | - | 452 W/m² | - |
| 1778005641 | 28.89° C | 68% | 1003.2 hPa | 0 mm | - | 334 W/m² | - |
| 1778005338 | 28.89° C | 68% | 1003.1 hPa | 0 mm | - | 300 W/m² | - |
| 1778005034 | 28.89° C | 68% | 1003.1 hPa | 0 mm | - | 303 W/m² | - |
| 1778004732 | 28.89° C | 67% | 1003.3 hPa | 0 mm | - | 227 W/m² | - |
| 1778004428 | 29.44° C | 66% | 1003.1 hPa | 0 mm | - | 304 W/m² | - |
| 1778004125 | 28.89° C | 66% | 1003.1 hPa | 0 mm | - | 396 W/m² | - |
| 1778003821 | 28.89° C | 67% | 1003.1 hPa | 0 mm | - | 419 W/m² | - |
| 1778003518 | 28.33° C | 68% | 1003.3 hPa | 0 mm | - | 418 W/m² | - |
| 1778003214 | 27.78° C | 69% | 1003 hPa | 0 mm | - | 418 W/m² | - |
| 1778002910 | 27.78° C | 69% | 1003.3 hPa | 0 mm | - | 397 W/m² | - |
| 1778002607 | 27.78° C | 70% | 1003.2 hPa | 0 mm | - | 475 W/m² | - |
| 1778002304 | 27.78° C | 70% | 1003.3 hPa | 0 mm | - | 342 W/m² | - |
| 1778002001 | 27.22° C | 70% | 1003.3 hPa | 0 mm | - | 332 W/m² | - |
| 1778001698 | 27.22° C | 70% | 1003.2 hPa | 0 mm | - | 353 W/m² | - |
| 1778001392 | 27.22° C | 70% | 1003.2 hPa | 0 mm | - | 301 W/m² | - |
| 1778001090 | 27.22° C | 71% | 1003 hPa | 0 mm | - | 304 W/m² | - |
| 1778000787 | 27.22° C | 70% | 1003.5 hPa | 0 mm | - | 288 W/m² | - |
| 1778000483 | 27.22° C | 71% | 1003.3 hPa | 0 mm | - | 308 W/m² | - |
| 1778000178 | 27.22° C | 71% | 1003.3 hPa | 0 mm | - | 382 W/m² | - |
| 1777999875 | 27.22° C | 70% | 1003.2 hPa | 0 mm | - | 317 W/m² | - |
| 1777999570 | 26.67° C | 72% | 1003.5 hPa | 0 mm | - | 412 W/m² | - |
| 1777999268 | 26.67° C | 72% | 1003.4 hPa | 0 mm | - | 297 W/m² | - |
* Rain latest hour (hover to see other rain measurements)
** Current wind speed in m/s (hover to see current wind gust speed)